K9SAT Weather Reports


time (UTC)temp
F
wind
direction
speed
knots
gust
knots
rain 1hr
in
rain 24hr
in
rain mn
in
humidity
%
barometer
mb
20260506113047 50 148 0.9 2.6 0.00 0.01 0.00 69 1016.4
20260506111542 50 134 0.9 1.7 0.00 0.01 0.00 68 1016.4
20260506110041 51 133 0.9 2.6 0.00 0.01 0.00 67 1016.5
20260506104545 50 141 0.9 2.6 0.00 0.01 0.00 69 1016.5
20260506103041 50 122 0.0 0.9 0.00 0.01 0.00 70 1016.4
20260506101545 50 126 0.9 1.7 0.00 0.01 0.00 68 1016.1
20260506100042 52 135 0.0 2.6 0.00 0.01 0.00 62 1016.0
20260506094543 52 141 0.0 2.6 0.00 0.04 0.00 62 1016.0
20260506093041 52 138 0.9 3.5 0.00 0.04 0.00 62 1016.2
20260506091538 53 179 0.9 3.5 0.00 0.04 0.00 61 1015.9
20260506090037 54 215 1.7 2.6 0.00 0.04 0.00 61 1016.1
20260506084543 54 221 0.9 2.6 0.00 0.10 0.00 60 1016.1
20260506083047 55 224 1.7 2.6 0.00 0.10 0.00 60 1016.1
20260506081541 54 252 1.7 2.6 0.00 0.10 0.00 61 1016.2
20260506073039 56 221 2.6 5.2 0.00 0.16 0.00 59 1016.4
20260506071545 56 221 2.6 5.2 0.00 0.16 0.00 59 1016.2
20260506061542 58 241 1.7 3.5 0.00 0.19 0.16 60 1016.1
20260506044542 60 276 0.0 1.7 0.00 0.20 0.16 51 1015.4
20260506043037 61 257 0.9 4.3 0.00 0.20 0.16 49 1015.1
20260506041542 62 290 2.6 4.3 0.00 0.20 0.16 46 1014.9
20260506040046 62 281 0.9 4.3 0.00 0.20 0.16 42 1014.7
20260506034543 63 239 3.5 6.1 0.00 0.20 0.16 41 1014.6
20260506033043 63 282 3.5 5.2 0.00 0.20 0.16 40 1014.3
20260506031538 64 296 1.7 4.3 0.00 0.20 0.16 40 1014.1
20260506030037 64 278 3.5 7.0 0.00 0.20 0.16 38 1013.8
20260506024545 65 288 3.5 8.7 0.00 0.20 0.16 37 1013.7
20260506023055 65 301 4.3 7.8 0.00 0.20 0.16 37 1013.4
20260506021543 66 288 6.1 9.6 0.00 0.20 0.16 35 1012.9
20260506020039 67 271 4.3 11.3 0.00 0.20 0.16 32 1012.6
20260506014540 68 287 7.0 12.2 0.00 0.20 0.16 30 1012.5
20260506013037 69 282 7.8 13.0 0.00 0.20 0.16 30 1012.4
20260506011540 70 235 7.0 13.0 0.00 0.20 0.16 32 1012.3
20260506010054 69 270 7.8 14.8 0.00 0.20 0.16 31 1012.2
20260506004543 70 320 8.7 14.8 0.00 0.20 0.16 29 1011.9
20260506003041 71 267 10.4 14.8 0.00 0.20 0.16 28 1012.1
20260506001544 71 266 9.6 15.6 0.00 0.20 0.16 26 1011.9
20260506000037 71 313 9.6 14.8 0.00 0.20 0.16 27 1011.7
20260505234601 71 206 11.3 18.2 0.00 0.20 0.16 25 1011.6
20260505233042 73 280 7.0 18.2 0.00 0.20 0.16 22 1011.6
20260505231542 72 247 10.4 16.5 0.00 0.20 0.16 23 1011.5
20260505230041 72 270 9.6 17.4 0.00 0.20 0.16 28 1011.6
20260505224542 72 278 8.7 17.4 0.00 0.20 0.16 31 1011.7
20260505223040 73 286 9.6 17.4 0.00 0.20 0.16 32 1011.9
20260505221542 72 243 8.7 21.7 0.00 0.20 0.16 32 1011.8
20260505220045 72 266 7.8 18.2 0.00 0.20 0.16 33 1012.1
20260505214559 73 274 8.7 19.1 0.00 0.20 0.16 34 1012.1
20260505213042 72 245 11.3 17.4 0.00 0.20 0.16 34 1012.2
20260505211539 72 198 10.4 17.4 0.00 0.20 0.16 34 1012.3
20260505210042 73 168 11.3 18.2 0.00 0.20 0.16 34 1012.5
20260505204553 72 251 9.6 21.7 0.00 0.20 0.16 35 1012.8
20260505203047 71 207 10.4 21.7 0.00 0.20 0.16 37 1012.7
20260505201539 72 265 11.3 18.2 0.00 0.20 0.16 37 1012.9
20260505200058 72 226 10.4 19.1 0.00 0.20 0.16 39 1013.1
20260505194545 71 227 10.4 16.5 0.00 0.20 0.16 39 1013.0
20260505193042 71 278 7.8 19.1 0.00 0.20 0.16 38 1013.1
20260505191542 71 311 7.0 14.8 0.00 0.20 0.16 48 1013.4
20260505190042 69 275 7.8 13.0 0.00 0.20 0.16 51 1013.4
20260505184538 67 294 1.7 7.0 0.00 0.20 0.16 56 1013.6
20260505183038 67 302 4.3 9.6 0.00 0.20 0.16 57 1013.8
20260505181543 66 300 2.6 7.0 0.00 0.20 0.16 59 1014.1
20260505180103 66 226 2.6 7.0 0.00 0.20 0.16 60 1014.1
20260505174558 65 311 2.6 6.1 0.00 0.20 0.16 62 1014.2
20260505173045 64 356 3.5 6.1 0.00 0.20 0.16 62 1014.3
20260505171537 64 158 0.9 5.2 0.00 0.20 0.16 64 1014.3
20260505170048 64 160 1.7 3.5 0.00 0.20 0.16 65 1014.3
20260505164539 63 271 2.6 4.3 0.00 0.20 0.16 66 1014.5
20260505163042 62 317 2.6 5.2 0.00 0.20 0.16 68 1014.5
20260505161541 62 339 2.6 5.2 0.00 0.20 0.16 70 1014.5
20260505153045 61 276 1.7 3.5 0.00 0.20 0.16 73 1014.3
20260505151543 60 212 1.7 3.5 0.00 0.20 0.16 74 1014.3
20260505124538 56 126 0.0 1.7 0.00 0.20 0.16 87 1013.1
20260505123047 56 119 0.9 1.7 0.00 0.20 0.16 86 1012.8
20260505121540 56 127 1.7 3.5 0.01 0.20 0.16 86 1013.2
20260505120043 56 124 0.0 2.6 0.01 0.20 0.16 87 1012.8
20260505114538 56 155 0.9 3.5 0.01 0.20 0.16 87 1012.6